EncompDEV
CodeWizard

Download Field Explorer Pro and search all Standard, Virtual, Custom and RDB Fields in your Encompass

Search Fields in containing Field Changes
Your Field Search History
Time Search Version Fields
11/18/2018 07:16 Busines 18.4 177
Global Field Search History
Time Search Version Fields
11/18/2018 07:16 Busines 18.4 177
11/18/2018 07:16 Co-Borr Declarations f 18.4 1
11/18/2018 07:16 1b 18.4 78
11/18/2018 07:16 company 18.4 190
11/18/2018 07:16 199 18.4 54
11/18/2018 07:16 210 18.4 220
11/18/2018 07:16 REO 18.4 5
11/18/2018 07:16 1130 18.4 14
11/18/2018 07:16 second 18.4 38
11/18/2018 07:16 HUD 1003 Addendum - All Conditions of 18.4 1
11/18/2018 07:16 1978 18.4 2
11/18/2018 07:16 special feat 18.4 1
11/18/2018 07:16 1118 18.4 3
11/18/2018 07:16 1115 18.4 49
11/18/2018 07:16 736 18.4 33
11/18/2018 07:16 Transfer Tax 18.4 3
11/18/2018 07:15 1977 18.4 2
11/18/2018 07:15 1110 18.4 65
11/18/2018 07:15 1108 18.4 11
11/18/2018 07:15 1969 18.4 2
11/18/2018 07:15 task 18.4 12
11/18/2018 07:15 Title Company 18.4 3
11/18/2018 07:15 or 18.4 8,314
11/18/2018 07:15 1199 18.4 4
11/18/2018 07:15 1107 18.4 11
11/18/2018 07:15 qm 18.4 375
11/18/2018 07:15 1106 18.4 5
11/18/2018 07:15 status 18.4 208
11/18/2018 07:15 FR0 18.4 54
11/18/2018 07:15 disposition 18.4 2
11/18/2018 07:15 1102 18.4 316
11/18/2018 07:15 disclos 18.4 2,646
11/18/2018 07:15 fha managem 18.4 40
11/18/2018 07:15 1101b 18.4 42
11/18/2018 07:15 1544 18.4 3
11/18/2018 07:15 Deferred 18.4 1
11/18/2018 07:15 1101 18.4 308
11/18/2018 07:15 property in 18.4 102
11/18/2018 07:15 1091 18.4 3
11/18/2018 07:15 2691 18.4 1
11/18/2018 07:15 1961 18.4 2
11/18/2018 07:15 1083 18.4 4
11/18/2018 07:15 FR01 18.4 10
11/18/2018 07:15 qu 18.4 7,703
11/18/2018 07:15 occ 18.4 48
11/18/2018 07:15 1960 18.4 2
11/18/2018 07:15 107 18.4 106
11/18/2018 07:15 Originator 18.4 17
11/18/2018 07:14 1065 18.4 32
11/18/2018 07:14 uldd.x172 18.4 1
11/18/2018 07:14 Borr F 18.4 2,321
11/18/2018 07:14 Construction Type 18.4 8
11/18/2018 07:14 1063 18.4 6
11/18/2018 07:14 1060 18.4 5
11/18/2018 07:14 106 18.4 146
11/18/2018 07:14 1959 18.4 2
11/18/2018 07:14 1051 18.4 5
11/18/2018 07:14 36 18.4 1,151
11/18/2018 07:14 1045 18.4 5
11/18/2018 07:14 USDA.X121 18.4 1
11/18/2018 07:14 a1 18.4 7
11/18/2018 07:14 104 18.4 191
11/18/2018 07:14 ULDD. 18.4 298
11/18/2018 07:14 property name 18.4 15
11/18/2018 07:14 requ 18.4 8,636
11/18/2018 07:14 1039 18.4 6
11/18/2018 07:14 ead 18.4 96
11/18/2018 07:14 Rate Lock Request Bas 18.4 3,991
11/18/2018 07:14 1022 18.4 6
11/18/2018 07:14 4093 18.4 12
11/18/2018 07:14 4145 18.4 2
11/18/2018 07:13 1956 18.4 2
11/18/2018 07:13 1898 18.4 2
11/18/2018 07:13 lock date 18.4 407
11/18/2018 07:13 dow 18.4 116
11/18/2018 07:13 template 18.4 24
11/18/2018 07:13 CASASRN.X88 18.4 1
11/18/2018 07:13 1019 18.4 5
11/18/2018 07:13 2825 18.4 2
11/18/2018 07:13 aus 18.4 504
11/18/2018 07:13 closing costs 18.4 44
11/18/2018 07:13 1884 18.4 2
11/18/2018 07:13 1011 18.4 10
11/18/2018 07:13 1010 18.4 46
11/18/2018 07:13 mode 18.4 12
11/18/2018 07:13 Acco 18.4 246
11/18/2018 07:12 closing cost estimate 18.4 7
11/18/2018 07:12 plus 18.4 15
11/18/2018 07:12 2825 18.4 2
11/18/2018 07:12 margin 18.4 2,055
11/18/2018 07:12 capiap.x 18.4 84
11/18/2018 07:12 3142 18.4 2
11/18/2018 07:12 section of 18.4 64
11/18/2018 07:12 1008 18.4 61
11/18/2018 07:12 Certificate 18.4 10
11/18/2018 07:12 subj 18.4 354
11/18/2018 07:12 inco 18.4 524
11/18/2018 07:12 rel 18.4 159
11/18/2018 07:12 1876 18.4 2
11/18/2018 07:12 denial.x47 18.4 1
11/18/2018 07:12 x98 18.4 77
11/18/2018 07:12 vend.x387 18.4 1
11/18/2018 07:12 users 18.4 2
11/18/2018 07:12 1007 18.4 59
11/18/2018 07:12 302 18.4 89
11/18/2018 07:12 LOG.MS.STAGE 18.4 1
11/18/2018 07:12 Qual Ratio Bottom 18.4 13
11/18/2018 07:12 1871 18.4 2
11/18/2018 07:12 811 18.4 90
11/18/2018 07:12 1005 18.4 37
11/18/2018 07:12 LE2.X30 18.4 1
11/18/2018 07:12 GOVERNMENT REF 18.4 1
11/18/2018 07:12 100 18.4 627
11/18/2018 07:11 HMD 18.4 123
11/18/2018 07:11 prepayment 18.4 50
11/18/2018 07:11 4146 18.4 2
11/18/2018 07:11 NEWHUD2.X3066 18.4 1
11/18/2018 07:11 ORGI 18.4 1
11/18/2018 07:11 agent 18.4 132
11/18/2018 07:11 newhud 18.4 5,705
11/18/2018 07:11 discou 18.4 176
11/18/2018 07:11 MORNET.X75 18.4 2
11/18/2018 07:11 1868 18.4 2
11/18/2018 07:11 1 18.4 21,213
11/18/2018 07:11 TPO status 18.4 8
11/18/2018 07:11 Rpt 18.4 22
11/18/2018 07:11 08 18.4 907
11/18/2018 07:11 lock # days 18.4 1
11/18/2018 07:11 VASUMM.X49 18.4 1
11/18/2018 07:11 LOAN TERM 18.4 66
11/18/2018 07:11 3141 18.4 2
11/18/2018 07:11 Property appraised value 18.4 24
11/18/2018 07:11 descriptio 18.4 399
11/18/2018 07:11 Info not 18.4 24
11/18/2018 07:11 Period Type 18.4 1
11/18/2018 07:11 Fe 18.4 8,681
11/18/2018 07:11 fees 18.4 1,840
11/18/2018 07:11 2312 18.4 1
11/18/2018 07:11 excl 18.4 37
11/18/2018 07:11 07 18.4 712
11/18/2018 07:11 06 18.4 998
11/18/2018 07:11 cd5 18.4 63
11/18/2018 07:10 714 18.4 22
11/18/2018 07:10 1866 18.4 2
11/18/2018 07:10 Lock Date (Previ 18.4 194
11/18/2018 07:10 1864 18.4 2
11/18/2018 07:10 051 18.4 17
11/18/2018 07:10 loan p 18.4 1,211
11/18/2018 07:10 0217 18.4 1
11/18/2018 07:10 020 18.4 36
11/18/2018 07:10 019 18.4 40
11/18/2018 07:10 x23 18.4 366
11/18/2018 07:10 300 18.4 142
11/18/2018 07:10 0002 18.4 26
11/18/2018 07:10 Rate Lock Request Base Pr 18.4 2,717
11/18/2018 07:10 hedging 18.4 1
11/18/2018 07:10 cd3.x50 18.4 1
11/18/2018 07:10 13 18.4 2,484
11/18/2018 07:10 sys.x2 18.4 104
11/18/2018 07:10 newhud2.x210 18.4 9
11/18/2018 07:10 portion 18.4 65
11/18/2018 07:10 - Total Fee Amount 18.4 278
11/18/2018 07:10 (Previous 1 18.4 4,488
11/18/2018 07:10 1857 18.4 2
11/18/2018 07:10 loan in 18.4 980
11/18/2018 07:09 co-b 18.4 562
11/18/2018 07:09 (Prev 18.4 6,974
11/18/2018 07:09 741 18.4 31
11/18/2018 07:09 CID 18.4 1
11/18/2018 07:09 Homeowner's Ins 18.4 2
11/18/2018 07:09 be00 18.4 52
11/18/2018 07:09 CD4. 18.4 36
11/18/2018 07:09 1999 18.4 2
11/18/2018 07:09 ( 18.4 13,600
11/18/2018 07:09 1840 18.4 2
11/18/2018 07:09 Insurance Mtg Ins Periodic Factor 1 18.4 1
11/18/2018 07:09 vasumm.x21 18.4 1
11/18/2018 07:09 CASASRN.X88 18.4 1
11/18/2018 07:09 622 18.4 13
11/18/2018 07:09 1052 18.4 5
11/18/2018 07:09 1 18.4 19,692
11/18/2018 07:09 2626 18.4 2
11/18/2018 07:09 LTV 18.4 41
11/18/2018 07:08 disc date 18.4 280
11/18/2018 07:08 streamline 18.4 2
11/18/2018 07:08 Fe 18.4 8,174
11/18/2018 07:08 casasrn.x79 18.4 1
11/18/2018 07:08 1839 18.4 2
11/18/2018 07:08 case b 18.4 10
11/18/2018 07:08 discoun 18.4 176
11/18/2018 07:08 mana 18.4 376
11/18/2018 07:08 mortgagee clause 18.4 1
11/18/2018 07:08 408 18.4 62
11/18/2018 07:08 4193 18.4 1
11/18/2018 07:08 4170 18.4 2
11/18/2018 07:08 1838 18.4 2
11/18/2018 07:08 mari 18.4 3
11/18/2018 07:08 float 18.4 1
11/18/2018 07:08 1051 18.4 5
11/18/2018 07:08 closer 18.4 6
11/18/2018 07:08 CreatedDate 18.4 5
11/18/2018 07:08 1835 18.4 2
11/18/2018 07:07 le1.x48 18.4 1
11/18/2018 07:07 appraised value 18.4 34
11/18/2018 07:07 NEWHUD2.X1101 18.4 1
11/18/2018 07:07 Hired 18.4 2
11/18/2018 07:07 lowest arm 18.4 1
11/18/2018 07:07 2091 18.4 13
11/18/2018 07:07 Documen 18.4 488
11/18/2018 07:07 Guaran 18.4 68
11/18/2018 07:07 (Previous 18.4 5,954
11/18/2018 07:07 est 18.4 2,880
11/18/2018 07:07 CD3.X136 18.4 1
11/18/2018 07:07 linked 18.4 10
11/18/2018 07:07 currentstatus 18.4 1
11/18/2018 07:07 1426 18.4 2
11/18/2018 07:07 1827 18.4 2
11/18/2018 07:07 1826 18.4 2
11/18/2018 07:07 summary 18.4 80
11/18/2018 07:06 fulfilled by 18.4 2
11/18/2018 07:06 file contacts loan officer 18.4 8
11/18/2018 07:06 mo 18.4 10,373
11/18/2018 07:06 denial.x40 18.4 1
11/18/2018 07:06 AUST 18.4 196
11/18/2018 07:06 1822 18.4 1
11/18/2018 07:06 2005 18.4 2
11/18/2018 07:06 G 18.4 10,744
11/18/2018 07:06 RES 18.4 1,273
11/18/2018 07:06 Info not provi 18.4 11
11/18/2018 07:06 C 18.4 27,032
11/18/2018 07:06 amort 18.4 132
11/18/2018 07:06 rECORDING fEE 18.4 21
11/18/2018 07:05 hedging 18.4 1
11/18/2018 07:05 620 18.4 13
11/18/2018 07:05 1821 18.4 13
11/18/2018 07:05 1819 18.4 2
11/18/2018 07:05 occupancy 18.4 37
11/18/2018 07:05 Change in cir 18.4 5
11/18/2018 07:05 C 18.4 29,849
11/18/2018 07:05 le1.x86 18.4 1
11/18/2018 07:05 1666 18.4 3
11/18/2018 07:05 mac 18.4 291
11/18/2018 07:05 1398 18.4 3
11/18/2018 07:05 share 18.4 18
11/18/2018 07:05 TPO.X39 18.4 1
11/18/2018 07:05 1811 18.4 13
11/18/2018 07:05 update 18.4 17
11/18/2018 07:05 2568 18.4 2
11/18/2018 07:05 exceed 18.4 17
11/18/2018 07:04 Mortg 18.4 521
11/18/2018 07:04 DD000 18.4 8
11/18/2018 07:04 current us 18.4 158
11/18/2018 07:04 Liabilities ID 18.4 2
11/18/2018 07:04 fr0304 18.4 1
11/18/2018 07:04 trans details credit 18.4 11
11/18/2018 07:04 342 18.4 47
11/18/2018 07:04 UWC.PT 18.4 8
11/18/2018 07:04 line 1207 18.4 43
11/18/2018 07:04 occupancy 18.4 37
11/18/2018 07:04 newhud2.x2841 18.4 1
11/18/2018 07:04 res 18.4 1,274
11/18/2018 07:04 2203 18.4 13
11/18/2018 07:04 Trans Details Lender Credits In Funding 18.4 1
11/18/2018 07:04 181 18.4 66
11/18/2018 07:04 impo 18.4 63
11/18/2018 07:04 Consent Date 18.4 21
11/18/2018 07:04 3249 18.4 2
11/18/2018 07:04 requ 18.4 7,437
11/18/2018 07:04 Co-Borr E 18.4 538
11/18/2018 07:04 payme 18.4 826
11/18/2018 07:04 NMLS.X15 18.4 1
11/18/2018 07:04 efolder 18.4 1
11/18/2018 07:04 order 18.4 115
11/18/2018 07:03 early 18.4 13
11/18/2018 07:03 1790 18.4 1
11/18/2018 07:03 BE0006 18.4 2
11/18/2018 07:03 project 18.4 214
11/18/2018 07:03 Rate Lock 18.4 11,575
11/18/2018 07:03 X50 18.4 88
11/18/2018 07:03 4495 18.4 2
11/18/2018 07:03 1783 18.4 1
11/18/2018 07:03 1782 18.4 1
11/18/2018 07:03 4121 18.4 2
11/18/2018 07:03 1768 18.4 2
11/18/2018 07:03 Sale Date 18.4 1
11/18/2018 07:03 tabalance 18.4 1
11/18/2018 07:03 3091 18.4 2
11/18/2018 07:03 748 18.4 9
11/18/2018 07:03 628 18.4 22
11/18/2018 07:02 17 18.4 1,449
11/18/2018 07:02 Verif 18.4 49
11/18/2018 07:02 uc 18.4 289
11/18/2018 07:02 disbursement date 18.4 8
11/18/2018 07:02 AUS.X2 18.4 22
11/18/2018 07:02 disbursement date 18.4 7
11/18/2018 07:02 morn 18.4 120
11/18/2018 07:02 page 4 18.4 1
11/18/2018 07:02 inc 18.4 1,005
11/18/2018 07:02 page 4 18.4 1
11/18/2018 07:02 disbursement date 18.4 7
11/18/2018 07:02 Appr 18.4 242
11/18/2018 07:02 188 18.4 27
11/18/2018 07:02 LE1. 18.4 129
11/18/2018 07:02 vend.x177 18.4 1
11/18/2018 07:02 m 18.4 21,557
11/18/2018 07:02 vend.x177 18.4 1
11/18/2018 07:02 Docume 18.4 455
11/18/2018 07:02 vend.x117 18.4 1
11/18/2018 07:02 top 18.4 19
11/18/2018 07:02 HMDA.X38 18.4 1
11/18/2018 07:02 top 18.4 19
11/18/2018 07:02 1544 18.4 3
11/18/2018 07:02 sell side 18.4 2,814
11/18/2018 07:02 gift 18.4 16
11/18/2018 07:02 self employed 18.4 173
11/18/2018 07:02 closing date 18.4 212
11/18/2018 07:02 net 18.4 327
11/18/2018 07:02 mi factor field locked 18.4 1
11/18/2018 07:02 QM.X198 18.4 1
11/18/2018 07:02 refinance purpose 18.4 4
11/18/2018 07:02 recording 18.4 31
11/18/2018 07:02 LOCKRATE.2592 18.4 1
11/18/2018 07:02 1014 18.4 7
11/18/2018 07:02 for 18.4 1,101
11/18/2018 07:01 proper 18.4 620
11/18/2018 07:01 Compensation Credit Amount 18.4 8
11/18/2018 07:01 page number 18.4 4
11/18/2018 07:01 ADDRESS 18.4 359
11/18/2018 07:01 NEWHUD.X1182 18.4 1
11/18/2018 07:01 page number 18.4 4
11/18/2018 07:01 FM0007 18.4 1
11/18/2018 07:01 h 18.4 11,193
11/18/2018 07:01 pace 18.4 14
11/18/2018 07:01 DISCLOSURE.X912 18.4 1
11/18/2018 07:01 pace 18.4 14
11/18/2018 07:01 FR0 18.4 55
11/18/2018 07:01 nmls.x1 18.4 9
11/18/2018 07:01 mortgage insuran 18.4 77
11/18/2018 07:01 funding date 18.4 5
11/18/2018 07:01 mortgage insuran 18.4 77
11/18/2018 07:01 Debt to Income 18.4 8
11/18/2018 07:01 monthly income 18.4 19
11/18/2018 07:01 HMDA. 18.4 73
11/18/2018 07:01 AUS.X 1 18.4 222
11/18/2018 07:01 negati 18.4 22
11/18/2018 07:01 monthly income 18.4 19
11/18/2018 07:01 signed date 18.4 10
11/18/2018 07:01 monthly housing expense 18.4 1
11/18/2018 07:01 AUS.X7 18.4 22
11/18/2018 07:01 monthly housing expense 18.4 1
11/18/2018 07:01 conces 18.4 113
11/18/2018 07:01 loan percentage 18.4 24
11/18/2018 07:01 3566 18.4 1
11/18/2018 07:01 loan percentage 18.4 24
11/18/2018 07:01 QM.x 18.4 372
11/18/2018 07:01 loan info loan id 18.4 16
11/18/2018 07:01 loan info loan 18.4 191
11/18/2018 07:01 Fees 18.4 1,843
11/18/2018 07:01 insurance name 18.4 11
11/18/2018 07:01 len 18.4 962
11/18/2018 07:01 insurance name 18.4 11
11/18/2018 07:01 du approva 18.4 3
11/18/2018 07:01 deed 18.4 12
11/18/2018 07:01 loan processor email 18.4 2
11/18/2018 07:01 DD000 18.4 8
11/18/2018 07:00 disclosure track 18.4 17
11/18/2018 07:00 credit received 18.4 1
11/18/2018 07:00 cou 18.4 719
11/18/2018 07:00 1092 18.4 4
11/18/2018 07:00 HUD 100 18.4 70
11/18/2018 07:00 condo 18.4 18
11/18/2018 07:00 condition.status 18.4 3
11/18/2018 07:00 milestone comments 18.4 1
11/18/2018 07:00 condition.status 18.4 3
11/18/2018 07:00 applicati 18.4 43
11/18/2018 07:00 condition count 18.4 18
11/18/2018 07:00 birth date 18.4 2
11/18/2018 07:00 condition count 18.4 18
11/18/2018 07:00 cd5.x13 18.4 1
11/18/2018 07:00 1554 18.4 2
11/18/2018 07:00 cd5.x13 18.4 1
11/18/2018 07:00 cash reserv 18.4 1
11/18/2018 07:00 rescission 18.4 2
11/18/2018 07:00 book 18.4 10
11/18/2018 07:00 Upfont MI Premium/Funding Amt Paid in Cash 18.4 12
11/18/2018 07:00 DISCLOSEDLE.LOANSNAPSHOT_DISCLOSEDAPR 18.4 1
11/18/2018 07:00 Upfont MI Premium/Funding Amt Paid in Cash 18.4 12
11/18/2018 07:00 Type Oth 18.4 88
11/18/2018 07:00 nmls loan type 18.4 1
11/18/2018 07:00 Type Oth 18.4 88
11/18/2018 07:00 revi 18.4 6,118
11/18/2018 07:00 started date 18.4 1
11/18/2018 07:00 Certificate am 18.4 1
11/18/2018 07:00 Total credits 18.4 4
11/18/2018 07:00 str 18.4 603
11/18/2018 07:00 sate 18.4 60
11/18/2018 07:00 Total credits 18.4 4
11/18/2018 07:00 Total costs 18.4 35
11/18/2018 07:00 obligate 18.4 269
11/18/2018 07:00 Seller Paid MI Premium 18.4 12
11/18/2018 07:00 SETTLEM 18.4 128
11/18/2018 07:00 Rev 18.4 7,196
11/18/2018 07:00 borrow 18.4 1,904
11/18/2018 06:59 Rev 18.4 7,196
11/18/2018 06:59 Rate No Closing Cost Optio 18.4 13
11/18/2018 06:59 PARSE 18.4 4
11/18/2018 06:59 Rate Lock Request Lender Fee Waiver Option 18.4 12
11/18/2018 06:59 Rate Lock Request L 18.4 7,884
11/18/2018 06:59 alimony 18.4 13
11/18/2018 06:59 Rate Lock Request L 18.4 7,884
11/18/2018 06:59 Rate No Closing Cost Option 18.4 13
11/18/2018 06:59 team 18.4 12
11/18/2018 06:59 Principal 18.4 124
11/18/2018 06:59 do not email 18.4 3
11/18/2018 06:59 endorsement 18.4 44
11/18/2018 06:59 construct 18.4 88
11/18/2018 06:59 Prepa 18.4 156
11/18/2018 06:59 balloo 18.4 28
11/18/2018 06:59 Penelaty 18.4 12
11/18/2018 06:59 Disclosure.X959 18.4 1
11/18/2018 06:59 pmi cancel 18.4 6
11/18/2018 06:59 MORNETPlus 18.4 8
11/18/2018 06:59 closing adjustme 18.4 304
11/18/2018 06:59 MI Premium/Funding Fee % 18.4 12
11/18/2018 06:59 MI Premium/Funding Amnt 18.4 12
11/18/2018 06:59 Earliest Closing Date 18.4 2
11/18/2018 06:59 MI Premium/Funding Amnt 18.4 12
11/18/2018 06:59 LOCKRAT 18.4 10,562
11/18/2018 06:59 EDIS 18.4 47
11/18/2018 06:59 Loan to Value (LTV) 18.4 24
11/18/2018 06:59 Loan Amnt Excluding MIP/PMI 18.4 12
11/18/2018 06:59 TOTAL MORTGAGED 18.4 1
11/18/2018 06:59 x21 18.4 251
11/18/2018 06:59 914 18.4 19
11/18/2018 06:59 Loan Amnt Excluding MIP/PMI 18.4 12
11/18/2018 06:59 Lender Fee Waiver Option 18.4 12
11/18/2018 06:59 1335 18.4 3
11/18/2018 06:59 Freddie Mac HELOC Actual Bal 18.4 13
11/18/2018 06:58 Field For Rounding to Nearest $50 18.4 12
11/18/2018 06:58 Lender Originatio 18.4 2
11/18/2018 06:58 qu 18.4 7,673
11/18/2018 06:58 FR040 18.4 4
11/18/2018 06:58 Est Closing Date 18.4 33
11/18/2018 06:58 Combined Loan to Value (CLTV) 18.4 12
11/18/2018 06:58 complete app 18.4 4
11/18/2018 06:58 DISCLOSURE.X254 18.4 1
11/18/2018 06:58 FM0004 18.4 1
11/18/2018 06:58 map 18.4 3
11/18/2018 06:58 Combined Loan to Value (CLTV) 18.4 12
11/18/2018 06:58 manner 18.4 1
11/18/2018 06:58 DENIAL.X30 18.4 1
11/18/2018 06:58 County 18.4 82
11/18/2018 06:58 Amort Type Other Descr 18.4 14
11/18/2018 06:58 QM 18.4 375
11/18/2018 06:58 Amort Type Other Descr 18.4 14
11/18/2018 06:58 reduc 18.4 43
11/18/2018 06:58 Amort Type GPM Years 18.4 12
11/18/2018 06:58 note rate 18.4 5
11/18/2018 06:58 Intent to proceed 18.4 7
11/18/2018 06:58 Amort Type GPM Years 18.4 12
11/18/2018 06:58 Amort Type GPM 18.4 29
11/18/2018 06:58 Amort Type ARM Descr 18.4 14
11/18/2018 06:58 notices.x97 18.4 1
11/18/2018 06:58 Amort Type ARM Descr 18.4 14
11/18/2018 06:58 rate adjust 18.4 9,568
11/18/2018 06:58 Amort Type 18.4 96
11/18/2018 06:58 CASASRN. 18.4 82
11/18/2018 06:58 FR0112 18.4 1
11/18/2018 06:58 3972 18.4 2
11/18/2018 06:58 3201 18.4 1
11/18/2018 06:58 3081 18.4 2
11/18/2018 06:58 HMDA 18.4 85
11/18/2018 06:58 3081 18.4 2
11/18/2018 06:57 1410 18.4 3
11/18/2018 06:57 sel 18.4 4,689
11/18/2018 06:57 qualification 18.4 53
11/18/2018 06:57 qm status 18.4 6
11/18/2018 06:57 p 18.4 22,765
11/18/2018 06:57 down 18.4 113
11/18/2018 06:57 casasrn.x1 18.4 55
11/18/2018 06:57 underwriting exception 18.4 3
11/18/2018 06:57 lockrate.2947 18.4 1
11/18/2018 06:57 4130 18.4 2
11/18/2018 06:57 .388 18.4 22
11/18/2018 06:57 estimated 18.4 41
11/18/2018 06:57 Mortgage Property 18.4 31
11/18/2018 06:57 email 18.4 136
11/18/2018 06:57 employee ID 18.4 2
11/18/2018 06:57 block 18.4 1
11/18/2018 06:57 TASK 18.4 12
11/18/2018 06:57 Sent Date 18.4 44
11/18/2018 06:57 waived 18.4 39
11/18/2018 06:57 Sent Date 18.4 44
11/18/2018 06:57 nmls originator 18.4 2
11/18/2018 06:57 l244 18.4 2
11/18/2018 06:57 Property 18.4 617
11/18/2018 06:57 Loan Estimate 18.4 305
11/18/2018 06:57 HUD41 18.4 1
11/18/2018 06:57 Bo 18.4 3,954
11/18/2018 06:57 HUD41 18.4 1
11/18/2018 06:57 DISCLO 18.4 2,722
11/18/2018 06:56 990 18.4 11
11/18/2018 06:56 the 18.4 1,272
11/18/2018 06:56 NOTICES.X16 18.4 1
11/18/2018 06:56 990 18.4 11
11/18/2018 06:56 Proceed 18.4 12
11/18/2018 06:56 4178 18.4 2
11/18/2018 06:56 buy side 18.4 3,253
11/18/2018 06:56 Intrm Serv Borrower 18.4 2
11/18/2018 06:56 4178 18.4 2
11/18/2018 06:56 3 18.4 11,000
11/18/2018 06:56 4156 18.4 2
11/18/2018 06:56 clause 18.4 20
11/18/2018 06:56 152 18.4 78
11/18/2018 06:56 1091 18.4 3
11/18/2018 06:56 1045 18.4 5
11/18/2018 06:56 tool 18.4 66
11/18/2018 06:56 lock denied 18.4 3,378
11/18/2018 06:56 173 18.4 57
11/18/2018 06:56 08 18.4 907
11/18/2018 06:56 t 18.4 29,927
11/18/2018 06:56 escrow amount 18.4 41
11/18/2018 06:56 ULDD.X27 18.4 1
11/18/2018 06:56 sys. 18.4 551
11/18/2018 06:56 processor fa 18.4 2
11/18/2018 06:56 le1.x4 18.4 11
11/18/2018 06:56 DOB 18.4 5
11/18/2018 06:56 1176 18.4 4
11/18/2018 06:56 processor fa 18.4 2
11/18/2018 06:56 disbursement date 18.4 13
11/18/2018 06:56 CASASRN.X148 18.4 1
11/18/2018 06:56 Estimat 18.4 337
11/18/2018 06:56 provider 18.4 141
11/18/2018 06:56 3969 18.4 2
11/18/2018 06:56 Milestone Sta 18.4 4
11/18/2018 06:56 NEWHUD2.X3064 18.4 1
11/18/2018 06:56 3969 18.4 2
11/18/2018 06:56 ta 18.4 8,260
11/18/2018 06:56 received by 18.4 4
11/18/2018 06:56 Requested Lock 18.4 70
11/18/2018 06:56 recei 18.4 108
11/18/2018 06:56 declaration L 18.4 32
11/18/2018 06:56 9 18.4 9,440
11/18/2018 06:56 recei 18.4 108
11/18/2018 06:55 Loan team 18.4 12
11/18/2018 06:55 rate lo 18.4 11,663
11/18/2018 06:55 4494 18.4 2
11/18/2018 06:55 Approval 18.4 61
11/18/2018 06:55 Period Type 18.4 1
11/18/2018 06:55 rate l 18.4 11,808
11/18/2018 06:55 lein 18.4 12
11/18/2018 06:55 qual rate 18.4 46
11/18/2018 06:55 product name 18.4 14
11/18/2018 06:55 product descript 18.4 4
11/18/2018 06:55 1092 18.4 4
11/18/2018 06:55 product descript 18.4 4
11/18/2018 06:55 percent 18.4 222
11/18/2018 06:55 inspection Fee 18.4 13
11/18/2018 06:55 ULDD.X44 18.4 1
11/18/2018 06:55 percent 18.4 222
11/18/2018 06:55 Borr Years in Line of Work 18.4 2
11/18/2018 06:55 owned v 18.4 7
11/18/2018 06:55 owned 18.4 20
11/18/2018 06:55 232 18.4 49
11/18/2018 06:55 organization 18.4 42
11/18/2018 06:55 surv 18.4 45
11/18/2018 06:55 vaelig.x74 18.4 1
11/18/2018 06:55 organization 18.4 42
11/18/2018 06:55 names 18.4 7
11/18/2018 06:55 Freddie Mac 18.4 338
11/18/2018 06:55 mtg ins 18.4 57
11/18/2018 06:55 mortgage type 18.4 12
11/18/2018 06:55 mi factor 18.4 3
11/18/2018 06:55 method provided 18.4 2
11/18/2018 06:55 counseling 18.4 45
11/18/2018 06:55 mORNET.X73 18.4 1
11/18/2018 06:55 log 18.4 40
11/18/2018 06:55 loan status 18.4 54
11/18/2018 06:55 limited 18.4 2
11/18/2018 06:55 lim 18.4 115
11/18/2018 06:55 lender paid 18.4 173
11/18/2018 06:55 Co Borrower Nam 18.4 27
11/18/2018 06:55 investor name 18.4 73
11/18/2018 06:55 Gfe application date 18.4 1
11/18/2018 06:55 investor name 18.4 73
11/18/2018 06:54 intent to proceed 18.4 7
11/18/2018 06:54 improvements 18.4 14
11/18/2018 06:54 1380 18.4 2
11/18/2018 06:54 improvements 18.4 14
11/18/2018 06:54 house income 18.4 62
11/18/2018 06:54 fv. 18.4 392
11/18/2018 06:54 property type 18.4 49
11/18/2018 06:54 file 18.4 1,010
11/18/2018 06:54 Months 18.4 75
11/18/2018 06:54 fha lender id 18.4 5
11/18/2018 06:54 fannie mae property code 18.4 2
11/18/2018 06:54 energy 18.4 18
11/18/2018 06:54 UWC.OPENEXTERNALCOUNT 18.4 1
11/18/2018 06:54 employee 18.4 13
11/18/2018 06:54 drawn 18.4 2
11/18/2018 06:54 vend.x500 18.4 1
11/18/2018 06:54 4085 18.4 2
11/18/2018 06:54 drawn 18.4 2
11/18/2018 06:54 ucd 18.4 13
11/18/2018 06:54 docs 18.4 526
11/18/2018 06:54 disabled 18.4 8
11/18/2018 06:54 interest rate dependent charges 18.4 4
11/18/2018 06:54 den 18.4 3,336
11/18/2018 06:54 Escrow City 18.4 16
11/18/2018 06:54 den 18.4 3,336
11/18/2018 06:54 dd0022 18.4 1
11/18/2018 06:54 dd0012 18.4 1
11/18/2018 06:54 amou 18.4 4,145
11/18/2018 06:54 dEPOSITORY 18.4 36
11/18/2018 06:54 Reviewed 18.4 11
11/18/2018 06:54 1400 18.4 7
11/18/2018 06:54 credit scor 18.4 79
11/18/2018 06:54 CTC 18.4 1
11/18/2018 06:54 credit s 18.4 440
11/18/2018 06:54 NEWHUD.X1237 18.4 1
11/18/2018 06:54 appr 18.4 239
11/18/2018 06:54 credit s 18.4 440
11/18/2018 06:54 priority 18.4 7
11/18/2018 06:54 report type 18.4 2
11/18/2018 06:54 FR0407 18.4 1
11/18/2018 06:53 HOEPA status 18.4 1
11/18/2018 06:53 LEI 18.4 15
11/18/2018 06:53 Expenses proposed mtg ins 18.4 1
11/18/2018 06:53 3401 18.4 12
11/18/2018 06:53 loan identifier 18.4 3
11/18/2018 06:53 Hazard Type 18.4 2
11/18/2018 06:53 lender name 18.4 37
11/18/2018 06:53 accepted 18.4 22
11/18/2018 06:53 preliminary 18.4 48
11/18/2018 06:53 1187 18.4 4
11/18/2018 06:53 1177 18.4 3
11/18/2018 06:53 745 18.4 32
11/18/2018 06:52 Subject propert 18.4 338
11/18/2018 06:52 contact date 18.4 60
11/18/2018 06:52 1043 18.4 5
11/18/2018 06:52 SYS 18.4 556
11/18/2018 06:52 Lender-paid 18.4 2
11/18/2018 06:52 Trans Details fir 18.4 26
11/18/2018 06:52 14 18.4 1,668
11/18/2018 06:52 mineral 18.4 2
11/18/2018 06:52 3531 18.4 1
11/18/2018 06:52 i 18.4 32,630
11/18/2018 06:52 hazard term 18.4 2
11/18/2018 06:52 Mortgage Recording fees 18.4 3
11/18/2018 06:52 notices.x83 18.4 1
11/18/2018 06:52 vend.x276 18.4 1
11/18/2018 06:52 179 18.4 58
11/18/2018 06:52 scra 18.4 1
11/18/2018 06:52 summ 18.4 197
11/18/2018 06:51 financedindicator 18.4 79
11/18/2018 06:51 Closing Disclosure Interest Rat 18.4 2
11/18/2018 06:51 318 18.4 81
11/18/2018 06:51 HUD1 Borr - 18.4 65
11/18/2018 06:51 liabilit 18.4 142
11/18/2018 06:51 newhud.x952 18.4 1
11/18/2018 06:51 borr dob 18.4 2
11/18/2018 06:51 4178 18.4 2
11/18/2018 06:51 4121 18.4 2
11/18/2018 06:51 PROJECT CLASS 18.4 4
11/18/2018 06:51 512 18.4 37
11/18/2018 06:51 newhud2.x1200 18.4 1
11/18/2018 06:50 2023 18.4 2
11/18/2018 06:50 freddie field 18.4 13
11/18/2018 06:50 HUD1 Borr - Gross Amt Due from Bo 18.4 6
11/18/2018 06:50 4183 18.4 2
11/18/2018 06:50 NMLS.x11 18.4 1
11/18/2018 06:50 816 18.4 89
11/18/2018 06:50 2288 18.4 6
11/18/2018 06:50 2149 18.4 13
11/18/2018 06:50 967 18.4 22
11/18/2018 06:50 Proces 18.4 81
11/18/2018 06:50 Guarantee Fe 18.4 37
11/18/2018 06:50 datetime 18.4 19
11/18/2018 06:50 disclosedcd.disclosuretype 18.4 1
11/18/2018 06:50 applicatio date 18.4 12
11/18/2018 06:50 FLOOD 18.4 109
11/18/2018 06:50 m 18.4 20,503
11/18/2018 06:50 TX 18.4 110
11/18/2018 06:49 Borr 18.4 3,282
11/18/2018 06:49 MO 18.4 10,392
11/18/2018 06:49 NEWHUD.X 18.4 1,819
11/18/2018 06:49 NMLS.X12 18.4 1
11/18/2018 06:49 newhud.x813 18.4 1
11/18/2018 06:49 2400 18.4 1
11/18/2018 06:49 23 18.4 1,004
11/18/2018 06:49 Warranty 18.4 12
11/18/2018 06:49 case file 18.4 6
11/18/2018 06:49 denial.x45 18.4 1
11/18/2018 06:49 Premium 18.4 132
11/18/2018 06:49 1959 18.4 2
11/18/2018 06:49 el 18.4 7,577
11/18/2018 06:49 736 18.4 33
11/18/2018 06:49 FR0115 18.4 1
11/18/2018 06:49 DENIAL 18.4 3,466
11/18/2018 06:48 Closing Cost 18.4 122
11/18/2018 06:48 initial 18.4 189
11/18/2018 06:48 Loan 18.4 1,896
11/18/2018 06:48 proper 18.4 620
11/18/2018 06:48 manufactured home 18.4 3
11/18/2018 06:48 page number 18.4 4
11/18/2018 06:48 X70 18.4 74
11/18/2018 06:48 pace 18.4 14
11/18/2018 06:48 ULDD.X17 18.4 11
11/18/2018 06:48 nmls.x1 18.4 9
11/18/2018 06:48 elig 18.4 274
11/18/2018 06:48 mortgage insuran 18.4 77
11/18/2018 06:48 monthly income 18.4 19
11/18/2018 06:48 limit 18.4 54
11/18/2018 06:48 monthly income 18.4 19
11/18/2018 06:48 pmi/mip 18.4 2
11/18/2018 06:48 debt to 18.4 34
11/18/2018 06:48 monthly housing expense 18.4 1
11/18/2018 06:48 self 18.4 176
11/18/2018 06:48 monthly housing expense 18.4 1
11/18/2018 06:48 NMLS.X15 18.4 1
11/18/2018 06:48 loan percentage 18.4 24
11/18/2018 06:48 loan info loan id 18.4 16
11/18/2018 06:48 coremile 18.4 1
11/18/2018 06:48 refun 18.4 53
11/18/2018 06:48 Freddie Mac HELOC Actual Bal 18.4 13
11/18/2018 06:48 Field For Rounding to Nearest $50 18.4 12
11/18/2018 06:48 imp 18.4 189
11/18/2018 06:48 934 18.4 32
11/18/2018 06:48 Field For Rounding to Nearest $50 18.4 12
11/18/2018 06:48 FV.X385 18.4 1
11/18/2018 06:48 FR040 18.4 4
11/18/2018 06:48 460 18.4 42
11/18/2018 06:48 Est Closing Date 18.4 33
11/18/2018 06:48 loanamount 18.4 4
11/18/2018 06:48 Combined Loan to Value (CLTV) 18.4 12
11/18/2018 06:48 HCLTV 18.4 3
11/18/2018 06:48 Combined Loan to Value (CLTV) 18.4 12
11/18/2018 06:48 CD3.X12 18.4 40
11/18/2018 06:48 Borr Employ 18.4 139
11/18/2018 06:48 Amort Type Other Descr 18.4 14
11/18/2018 06:48 Amort Type GPM Years 18.4 12
11/18/2018 06:48 fm0041 18.4 1
11/18/2018 06:48 comp 18.4 2,852
11/18/2018 06:48 Amort Type GPM Years 18.4 12
11/18/2018 06:47 Amort Type GPM 18.4 29
11/18/2018 06:47 Co Borrower Name 18.4 27
11/18/2018 06:47 discount poin 18.4 69
11/18/2018 06:47 Amort Type ARM Descr 18.4 14
11/18/2018 06:47 Amort Type 18.4 96
11/18/2018 06:47 1942 18.4 2
11/18/2018 06:47 Amort Type 18.4 96
11/18/2018 06:47 trans details 18.4 435
11/18/2018 06:47 3972 18.4 2
11/18/2018 06:47 VALA. X20 18.4 1
11/18/2018 06:47 3972 18.4 2
11/18/2018 06:47 3201 18.4 1
11/18/2018 06:47 initial loan amount 18.4 2
11/18/2018 06:47 3201 18.4 1
11/18/2018 06:47 89 18.4 530
11/18/2018 06:47 3081 18.4 2
11/18/2018 06:47 2950 18.4 13
11/18/2018 06:47 151 18.4 70
11/18/2018 06:47 234 18.4 48
11/18/2018 06:47 disclosure.x340 18.4 1
11/18/2018 06:47 151 18.4 70
11/18/2018 06:47 newhud2.x22 18.4 95
11/18/2018 06:47 1410 18.4 3
11/18/2018 06:47 482 18.4 34
11/18/2018 06:47 114 18.4 141
11/18/2018 06:47 105 18.4 96
11/18/2018 06:47 b 18.4 17,332
11/18/2018 06:47 4142 18.4 2
11/18/2018 06:47 milestone date 18.4 18
11/18/2018 06:47 4023 18.4 2
11/18/2018 06:47 Lien Type 18.4 2
11/18/2018 06:47 3657 18.4 2
11/18/2018 06:47 3261 18.4 2
11/18/2018 06:47 1889 18.4 1
11/18/2018 06:47 1841 18.4 2
11/18/2018 06:47 1822 18.4 1
11/18/2018 06:47 1768 18.4 2
11/18/2018 06:47 1647 18.4 3
11/18/2018 06:47 Holdback 18.4 2
11/18/2018 06:47 Transunion 18.4 168
11/18/2018 06:47 1644 18.4 3
11/18/2018 06:46 Closing Docs REGZ Loan in 18.4 6
11/18/2018 06:46 regzgfe 18.4 6
11/18/2018 06:46 1643 18.4 3
11/18/2018 06:46 1641 18.4 3
11/18/2018 06:46 ULDD.X141 18.4 1
11/18/2018 06:46 Title report 18.4 1
11/18/2018 06:46 1636 18.4 3
11/18/2018 06:46 DISCLOSURE.X10 18.4 111
11/18/2018 06:46 FM00 18.4 27
11/18/2018 06:46 1519 18.4 3
11/18/2018 06:46 1045 18.4 5
11/18/2018 06:46 t 18.4 29,927
11/18/2018 06:46 CD3.X109 18.4 2
11/18/2018 06:46 t 18.4 29,927
11/18/2018 06:46 Indicator 18.4 681
11/18/2018 06:46 sys. 18.4 551
11/18/2018 06:46 spe 18.4 138
11/18/2018 06:46 processor fa 18.4 2
11/18/2018 06:46 rate lock buy side total buy price 18.4 24
11/18/2018 06:46 polic 18.4 87
11/18/2018 06:46 ysp 18.4 31
11/18/2018 06:46 newhud.x78 18.4 10
11/18/2018 06:46 legal 18.4 27
11/18/2018 06:46 financing 18.4 37
11/18/2018 06:46 Loan Am 18.4 540
11/18/2018 06:46 ULDD.TotalMortgaged 18.4 1
11/18/2018 06:46 disbursement date 18.4 13
11/18/2018 06:46 closing costs 18.4 45
11/18/2018 06:46 ULDD.FNM.AutoUWD 18.4 1
11/18/2018 06:46 applicable 18.4 14
11/18/2018 06:46 proper 18.4 578
11/18/2018 06:46 U 18.4 26,011
11/18/2018 06:46 add 18.4 935
11/18/2018 06:46 MORNET.X90 18.4 1
11/18/2018 06:46 Fee Detail 18.4 3,619
11/18/2018 06:46 Current Status 18.4 11
11/18/2018 06:46 I 18.4 29,829
11/18/2018 06:46 Current Status 18.4 11
11/18/2018 06:46 DISCLOSURE.X364 18.4 1
11/18/2018 06:46 appraised 18.4 34
11/18/2018 06:46 Acquire 18.4 4
11/18/2018 06:46 4460 18.4 1
11/18/2018 06:46 2149 18.4 13
11/18/2018 06:46 424 18.4 40
11/18/2018 06:46 version 18.4 15
11/18/2018 06:46 va 18.4 996
11/18/2018 06:46 BE 18.4 1,003
11/18/2018 06:46 va 18.4 996
11/18/2018 06:46 upfront 18.4 7
11/18/2018 06:46 uldd.x31 18.4 1
11/18/2018 06:46 un 18.4 5,950
11/18/2018 06:45 trans details mo 18.4 138
11/18/2018 06:45 NOTICES.X49 18.4 1
11/18/2018 06:45 im 18.4 1,251
11/18/2018 06:45 trans details mo 18.4 138
11/18/2018 06:45 total monthly 18.4 31
11/18/2018 06:45 onr 18.4 97
11/18/2018 06:45 term 18.4 203
11/18/2018 06:45 ta 18.4 8,260
11/18/2018 06:45 newhud2.x2238 18.4 1
11/18/2018 06:45 ta 18.4 8,260
11/18/2018 06:45 submiss 18.4 34
11/18/2018 06:45 subject street 18.4 15
11/18/2018 06:45 started 18.4 2
11/18/2018 06:45 srp 18.4 71
11/18/2018 06:45 purchaser 18.4 2
11/18/2018 06:45 cb3 18.4 26
11/18/2018 06:45 purchaser 18.4 2
11/18/2018 06:45 3091 18.4 2
11/18/2018 06:45 alternative 18.4 16
11/18/2018 06:45 owned v 18.4 7
11/18/2018 06:45 Do Not Wish Indicator 18.4 4
11/18/2018 06:45 Freddie Mac LP loan 18.4 13
11/18/2018 06:45 owned v 18.4 7
11/18/2018 06:45 subject property type 18.4 33
11/18/2018 06:45 owned 18.4 20
11/18/2018 06:45 refundable 18.4 31
11/18/2018 06:45 organization 18.4 42
11/18/2018 06:45 1460 18.4 2
11/18/2018 06:45 multi 18.4 2
11/18/2018 06:45 VEND.X493 18.4 1
11/18/2018 06:45 2026 18.4 2
11/18/2018 06:45 hmda.x13 18.4 1
11/18/2018 06:45 architect 18.4 15
11/18/2018 06:45 flood po 18.4 10
11/18/2018 06:45 fl0008 18.4 1
11/18/2018 06:45 file 18.4 1,010
11/18/2018 06:45 energy 18.4 18
11/18/2018 06:45 employment is 18.4 2
11/18/2018 06:45 doc 18.4 1,087
11/18/2018 06:45 company 18.4 190
11/18/2018 06:45 discount points 18.4 15
11/18/2018 06:45 special 18.4 20
11/18/2018 06:44 1952 18.4 2
11/18/2018 06:44 earliest 18.4 3
11/18/2018 06:44 discount points 18.4 15
11/18/2018 06:44 ch 18.4 2,048
11/18/2018 06:44 Borr Equ 18.4 339
11/18/2018 06:44 buy 18.4 2,926
11/18/2018 06:44 bankruptcy 18.4 5
11/18/2018 06:44 apr 18.4 182
11/18/2018 06:44 Present Address 18.4 9
11/18/2018 06:44 applicatio n date 18.4 11
11/18/2018 06:44 990 18.4 11
11/18/2018 06:44 annual mi 18.4 9
11/18/2018 06:44 LE 18.4 5,801
11/18/2018 06:44 mana 18.4 376
11/18/2018 06:44 Fannie MAe servicer 18.4 2
11/18/2018 06:44 2148 18.4 13
11/18/2018 06:44 student loan 18.4 1
11/18/2018 06:44 credit request 18.4 21
11/18/2018 06:44 1532 18.4 4
11/18/2018 06:44 Termina 18.4 15
11/18/2018 06:44 1527 18.4 4
11/18/2018 06:44 1537 18.4 4
11/18/2018 06:44 1527 18.4 4
11/18/2018 06:44 construction 18.4 111
11/18/2018 06:44 1525 18.4 3
11/18/2018 06:44 lb 18.4 12
11/18/2018 06:44 position 18.4 34
11/18/2018 06:44 1525 18.4 3
11/18/2018 06:44 Conditions to Assumability 18.4 1
11/18/2018 06:44 wire date 18.4 5
11/18/2018 06:44 1524 18.4 4
11/18/2018 06:44 VA typ 18.4 66
11/18/2018 06:44 1524 18.4 4
11/18/2018 06:44 1523 18.4 4
11/18/2018 06:44 property status 18.4 26
11/18/2018 06:44 136 18.4 72
11/18/2018 06:44 Funding Fee 18.4 145
11/18/2018 06:44 136 18.4 72
11/18/2018 06:44 1343 18.4 3
11/18/2018 06:44 1010 usda 18.4 1
11/18/2018 06:44 in 18.4 16,211
11/18/2018 06:44 mornet 18.4 54
11/18/2018 06:44 cltv 18.4 36
11/18/2018 06:44 Manual 18.4 1
11/18/2018 06:44 loan se 18.4 444
11/18/2018 06:44 ULDD 18.4 298
11/18/2018 06:44 includ 18.4 35
11/18/2018 06:44 pud 18.4 3
11/18/2018 06:44 Adjusts Every Months/Year/Years 18.4 2
11/18/2018 06:43 loan proce 18.4 39
11/18/2018 06:43 closing cit 18.4 71
11/18/2018 06:43 austracking 18.4 192
11/18/2018 06:43 closing 18.4 2,041
11/18/2018 06:43 USDA 18.4 224
11/18/2018 06:43 397 18.4 42
11/18/2018 06:43 community 18.4 11
11/18/2018 06:43 contractor payment 18.4 1
11/18/2018 06:43 offering identifier 18.4 3
11/18/2018 06:43 fl0016 18.4 1
11/18/2018 06:43 cr 18.4 2,204
11/18/2018 06:43 owned va 18.4 6
11/18/2018 06:43 x499 18.4 5
11/18/2018 06:43 2775 18.4 13
11/18/2018 06:43 VF 18.4 2
11/18/2018 06:43 agent 18.4 132
11/18/2018 06:43 address 18.4 359
11/18/2018 06:43 fullfilled 18.4 2
11/18/2018 06:43 mornet.x67 18.4 12
11/18/2018 06:42 71 18.4 545
11/18/2018 06:42 Check 18.4 402
11/18/2018 06:42 newhud.x1594 18.4 1
11/18/2018 06:42 ellie 18.4 381
11/18/2018 06:42 le read 18.4 1
11/18/2018 06:42 coborrower 18.4 113
11/18/2018 06:42 Hud 92900 property type 18.4 1
11/18/2018 06:42 1397 18.4 3
11/18/2018 06:42 originat 18.4 112
11/18/2018 06:42 Curr 18.4 304
11/18/2018 06:42 PROPERTY ID 18.4 16
11/18/2018 06:42 STI 18.4 551
11/18/2018 06:42 lender informa 18.4 9
11/18/2018 06:42 undiscounted 18.4 27
11/18/2018 06:42 1836 18.4 2
11/18/2018 06:42 existing 18.4 95
11/18/2018 06:42 Owned Property 18.4 9
11/18/2018 06:42 CD3.X9 18.4 55
11/18/2018 06:42 RE88395.X249 18.4 1
11/18/2018 06:42 432 18.4 13
11/18/2018 06:42 initial disclosu 18.4 26
11/18/2018 06:42 property in 18.4 103
11/18/2018 06:42 caivrs 18.4 4
11/18/2018 06:42 waiver 18.4 2
11/18/2018 06:42 1040 18.4 35
11/18/2018 06:41 l260 18.4 1
11/18/2018 06:41 i 18.4 29,829
11/18/2018 06:41 sales price 18.4 12
11/18/2018 06:41 LoanTeammember.name 18.4 1
11/18/2018 06:41 maturity date 18.4 3
11/18/2018 06:41 date tracking 18.4 43
11/18/2018 06:41 4243 18.4 2
11/18/2018 06:41 uldd loan servicer i 18.4 1
11/18/2018 06:41 construction l 18.4 73
11/18/2018 06:41 990 18.4 11
11/18/2018 06:41 LOANTERMTABLE.CUSTOMIZE 18.4 1
11/18/2018 06:41 payments 18.4 26
11/18/2018 06:41 Disclosure 18.4 2,471
11/18/2018 06:41 FR0404 18.4 1
11/18/2018 06:41 Flood Certification 18.4 5
11/18/2018 06:41 CD3. 18.4 797
11/18/2018 06:41 Underwriting appro 18.4 7
11/18/2018 06:41 subject indicato 18.4 7
11/18/2018 06:41 Security Inst 18.4 24
11/18/2018 06:41 3147 18.4 2
11/18/2018 06:41 sp 18.4 820
11/18/2018 06:41 SUBSE 18.4 8
11/18/2018 06:41 property flood 18.4 2
11/18/2018 06:40 1519 18.4 3
11/18/2018 06:40 as 18.4 9,281
11/18/2018 06:40 NEWHUD.X70 18.4 12
11/18/2018 06:40 2153 18.4 12
11/18/2018 06:40 title company 18.4 3
11/18/2018 06:40 NOTICES.X88 18.4 1
177 of 34,519 Fields in Encompass 18.4 contain 'Busines'
Type Field ID Format Opts Description First Chng
Standard 213 DECIMAL_2 Assets Net Worth of Business
Standard 3544 DATE GFE Initial GFE Disclosure Affiliated Business Disclosure Provided Date 8.1
Standard AB0001 STRING Affiliated Business Arrangements - Lender Name 9.1
Standard AB0002 STRING Affiliated Business Arrangements - Lender's Address 9.1
Standard AB0003 STRING Affiliated Business Arrangements - Lender's Address City 9.1
Standard AB0004 STATE Affiliated Business Arrangements - Lender's Address State 9.1
Standard AB0005 ZIPCODE Affiliated Business Arrangements - Lender's Address Zipcode 9.1
Standard AB0006 STRING Affiliated Business Arrangements - Affiliate Name 9.1
Standard AB0007 STRING Affiliated Business Arrangements - Nature of Relationship 9.1
Standard AB0008 YN 2 Affiliated Business Arrangements - Settlement Indicator 9.1
Standard AB0009 YN 2 Affiliated Business Arrangements - Purchase/Sale/Refinance Indicator 9.1
Standard AB0010 STRING Affiliated Business Arrangements - Service Description Line 1 9.1
Standard AB0011 STRING Affiliated Business Arrangements - Service Description Line 2 9.1
Standard AB0012 STRING Affiliated Business Arrangements - Service Description Line 3 9.1
Standard AB0013 STRING Affiliated Business Arrangements - Service Description Line 4 9.1
Standard AB0014 STRING Affiliated Business Arrangements - Service Description Line 5 9.1
Standard AB0015 STRING Affiliated Business Arrangements - Service Description Line 6 9.1
Standard AB0016 STRING Affiliated Business Arrangements - Charge or Range of Charges Line 1 9.1
Standard AB0017 STRING Affiliated Business Arrangements - Charge or Range of Charges Line 2 9.1
Standard AB0018 STRING Affiliated Business Arrangements - Charge or Range of Charges Line 3 9.1
Standard AB0019 STRING Affiliated Business Arrangements - Charge or Range of Charges Line 4 9.1
Standard AB0020 STRING Affiliated Business Arrangements - Charge or Range of Charges Line 5 9.1
Standard AB0021 STRING Affiliated Business Arrangements - Charge or Range of Charges Line 6 9.1
Standard AB0022 YN 2 Affiliated Business Arrangements - Required Use Indicator Line 1 9.1
Standard AB0023 YN 2 Affiliated Business Arrangements - Required Use Indicator Line 2 9.1
Standard AB0024 YN 2 Affiliated Business Arrangements - Required Use Indicator Line 3 9.1
Standard AB0025 YN 2 Affiliated Business Arrangements - Required Use Indicator Line 4 9.1
Standard AB0026 YN 2 Affiliated Business Arrangements - Required Use Indicator Line 5 9.1
Standard AB0027 YN 2 Affiliated Business Arrangements - Required Use Indicator Line 6 9.1
Standard AB0028 DECIMAL_2 Affiliated Business Arrangements - Percentage of Ownership Interest 9.1
Standard BE0027 DECIMAL_3 Borr Employer Percent Business Owned
Standard BE0028 PHONE Borr Employer Business Phone
Standard BE0032 STRING Borr Employer Business Name
Standard CASASRN.X176 INTEGER Freddie Mac Borr % of Business Owned
Standard CASASRN.X177 INTEGER Freddie Mac Co-Borr % of Business Owned
Standard CE0027 DECIMAL_3 Co-Borr Employer Percent Business Owned
Standard CE0028 PHONE Co-Borr Employer Business Phone
Standard CE0032 STRING Co-Borr Employer Business Name
Standard DISCLOSURE.X205 STRING 6 State Disc - We Conduct Business As
Standard DISCLOSURE.X303 INTEGER State Disc - No. Years Broker Has Done Business as Loan Broker
Standard DISCLOSURE.X413 STRING State Disc - Name Under Which Broker Does Business (or Intends to)
Standard DISCLOSURE.X900 STRING 6 State Disc - KS - We Conduct Business As
Standard DISCLOSURE.X902 INTEGER State Disc - No. Years Broker Has Done Business as Loan Broker
Standard DISCLOSURE.X905 STRING 6 State Disc - LA - We Conduct Business As
Standard DISCLOSURE.X907 INTEGER State Disc - No. Years Broker Has Done Business as Loan Broker
Standard DISCLOSURE.X950 YN 2 Disclosure-NY-Rate Lock honored only if loan closes at least 3 business days prior to the Lock Expiration Date
Standard FE0117 PHONE Borr Business Phone
Standard FE0217 PHONE Co-Borr Business Phone
Standard FM1084.X177 STRING 1084A/1040 Business Information - Business Name 16.2
Standard HMDA.X58 STRING 2 Business or Commercial Purpose 17.2
Standard LE1.X82 YN 2 Expiration (Intent to Proceed received after 10 business days) 15.1
Standard NBOC0013 PHONE Non-Borrowing Owner File Contact - Business Phone Number 18.3
Standard REQUEST.X31 PHONE Request Appraisal Access Information Contact Business Phone
Standard SELLER3.BUSPH PHONE File Contacts Seller 3 Business Phone 8.1
Standard SELLER4.BUSPH PHONE File Contacts Seller 4 Business Phone 8.1
Standard SERVICE.X141 PHONE Intrm Serv Borr Business Phone 14.2
Standard TPO.X100 STRING TPO Correspondent File Contact Business Fax 17.1
Standard TPO.X65 STRING TPO Loan Officer Business Phone 14.2
Standard TPO.X66 STRING TPO Loan Officer Business Fax 14.2
Standard TPO.X78 STRING TPO Loan Processor Business Phone 14.2
Standard TPO.X79 STRING TPO Loan Processor Business Fax 14.2
Standard TPO.X99 STRING TPO Correspondent File Contact Business Phone 17.1
Standard VEND.X220 PHONE File Contacts Seller Business Phone
Standard VEND.X421 PHONE File Contacts Seller 2 Business Phone
Standard VEND.X681 STRING File Contacts Lender Business License Auth Name 15.1
Standard VEND.X682 STRING 5 File Contacts Lender Business License Auth Type 15.1
Standard VEND.X683 STATE File Contacts Lender Business License Auth Sate Code 15.1
Standard VEND.X684 DATE File Contacts Lender Business License Auth Date 15.1
Standard VEND.X690 STRING File Contacts Appraiser Business License Auth Name 15.1
Standard VEND.X691 STRING 5 File Contacts Appraiser Business License Auth Type 15.1
Standard VEND.X692 STATE File Contacts Appraiser Business License Auth Sate Code 15.1
Standard VEND.X693 DATE File Contacts Appraiser Business License Auth Date 15.1
Standard VEND.X694 STRING File Contacts Appraiser Business License No 15.1
Standard VEND.X699 STRING File Contacts Escrow Business License Auth Name 15.1
Standard VEND.X700 STRING 5 File Contacts Escrow Business License Auth Type 15.1
Standard VEND.X701 STATE File Contacts Escrow Business License Auth Sate Code 15.1
Standard VEND.X702 DATE File Contacts Escrow Business License Auth Date 15.1
Standard VEND.X708 STRING File Contacts Title Business License Auth Name 15.1
Standard VEND.X709 STRING 5 File Contacts Title Business License Auth Type 15.1
Standard VEND.X710 STATE File Contacts Title Business License Auth Sate Code 15.1
Standard VEND.X711 DATE File Contacts Title Business License Auth Date 15.1
Standard VEND.X717 STRING File Contacts Buyer's Attorney Business License Auth Name 15.1
Standard VEND.X718 STRING 5 File Contacts Buyer's Attorney Business License Auth Type 15.1
Standard VEND.X719 STATE File Contacts Buyer's Attorney Business License Auth Sate Code 15.1
Standard VEND.X720 DATE File Contacts Buyer's Attorney Business License Auth Date 15.1
Standard VEND.X726 STRING File Contacts Seller's Attorney Business License Auth Name 15.1
Standard VEND.X727 STRING 5 File Contacts Seller's Attorney Business License Auth Type 15.1
Standard VEND.X728 STATE File Contacts Seller's Attorney Business License Auth Sate Code 15.1
Standard VEND.X729 DATE File Contacts Seller's Attorney Business License Auth Date 15.1
Standard VEND.X735 STRING File Contacts Buyer's Agent Business License Auth Name 15.1
Standard VEND.X736 STRING 5 File Contacts Buyer's Agent Business License Auth Type 15.1
Standard VEND.X737 STATE File Contacts Buyer's Agent Business License Auth Sate Code 15.1
Standard VEND.X738 DATE File Contacts Buyer's Agent Business License Auth Date 15.1
Standard VEND.X744 STRING File Contacts Notary Business License Auth Name 15.1
Standard VEND.X745 STRING 5 File Contacts Notary Business License Auth Type 15.1
Standard VEND.X746 STATE File Contacts Notary Business License Auth Sate Code 15.1
Standard VEND.X747 DATE File Contacts Notary Business License Auth Date 15.1
Standard VEND.X753 STRING File Contacts Builder Business License Auth Name 15.1
Standard VEND.X754 STRING 5 File Contacts Builder Business License Auth Type 15.1
Standard VEND.X755 STATE File Contacts Builder Business License Auth Sate Code 15.1
Standard VEND.X756 DATE File Contacts Builder Business License Auth Date 15.1
Standard VEND.X762 STRING File Contacts Hazard Insurance Business License Auth Name 15.1
Standard VEND.X763 STRING 5 File Contacts Hazard Insurance Business License Auth Type 15.1
Standard VEND.X764 STATE File Contacts Hazard Insurance Business License Auth Sate Code 15.1
Standard VEND.X765 DATE File Contacts Hazard Insurance Business License Auth Date 15.1
Standard VEND.X771 STRING File Contacts Mortgage Insurance Business License Auth Name 15.1
Standard VEND.X772 STRING 5 File Contacts Mortgage Insurance Business License Auth Type 15.1
Standard VEND.X773 STATE File Contacts Mortgage Insurance Business License Auth Sate Code 15.1
Standard VEND.X774 DATE File Contacts Mortgage Insurance Business License Auth Date 15.1
Standard VEND.X780 STRING File Contacts Surveyor Business License Auth Name 15.1
Standard VEND.X781 STRING 5 File Contacts Surveyor Business License Auth Type 15.1
Standard VEND.X782 STATE File Contacts Surveyor Business License Auth Sate Code 15.1
Standard VEND.X783 DATE File Contacts Surveyor Business License Auth Date 15.1
Standard VEND.X789 STRING File Contacts Flood Insurance Business License Auth Name 15.1
Standard VEND.X790 STRING 5 File Contacts Flood Insurance Business License Auth Type 15.1
Standard VEND.X791 STATE File Contacts Flood Insurance Business License Auth Sate Code 15.1
Standard VEND.X792 DATE File Contacts Flood Insurance Business License Auth Date 15.1
Standard VEND.X798 STRING File Contacts Credit Report Business License Auth Name 15.1
Standard VEND.X799 STRING 5 File Contacts Credit Report Business License Auth Type 15.1
Standard VEND.X800 STATE File Contacts Credit Report Business License Auth Sate Code 15.1
Standard VEND.X801 DATE File Contacts Credit Report Business License Auth Date 15.1
Standard VEND.X807 STRING File Contacts Underwriter Business License Auth Name 15.1
Standard VEND.X808 STRING 5 File Contacts Underwriter Business License Auth Type 15.1
Standard VEND.X809 STATE File Contacts Underwriter Business License Auth Sate Code 15.1
Standard VEND.X810 DATE File Contacts Underwriter Business License Auth Date 15.1
Standard VEND.X816 STRING File Contacts Servicing Business License Auth Name 15.1
Standard VEND.X817 STRING 5 File Contacts Servicing Business License Auth Type 15.1
Standard VEND.X818 STATE File Contacts Servicing Business License Auth Sate Code 15.1
Standard VEND.X819 DATE File Contacts Servicing Business License Auth Date 15.1
Standard VEND.X825 STRING File Contacts Doc Signing Business License Auth Name 15.1
Standard VEND.X826 STRING 5 File Contacts Doc Signing Business License Auth Type 15.1
Standard VEND.X827 STATE File Contacts Doc Signing Business License Auth Sate Code 15.1
Standard VEND.X828 DATE File Contacts Doc Signing Business License Auth Date 15.1
Standard VEND.X834 STRING File Contacts Warehouse Business License Auth Name 15.1
Standard VEND.X835 STRING 5 File Contacts Warehouse Business License Auth Type 15.1
Standard VEND.X836 STATE File Contacts Warehouse Business License Auth Sate Code 15.1
Standard VEND.X837 DATE File Contacts Warehouse Business License Auth Date 15.1
Standard VEND.X843 STRING File Contacts Financial PLanner Business License Auth Name 15.1
Standard VEND.X844 STRING 5 File Contacts Financial PLanner Business License Auth Type 15.1
Standard VEND.X845 STATE File Contacts Financial PLanner Business License Auth Sate Code 15.1
Standard VEND.X846 DATE File Contacts Financial PLanner Business License Auth Date 15.1
Standard VEND.X852 STRING File Contacts Investor Business License Auth Name 15.1
Standard VEND.X853 STRING 5 File Contacts Investor Business License Auth Type 15.1
Standard VEND.X854 STATE File Contacts Investor Business License Auth Sate Code 15.1
Standard VEND.X855 DATE File Contacts Investor Business License Auth Date 15.1
Standard VEND.X861 STRING File Contacts Assign to Business License Auth Name 15.1
Standard VEND.X862 STRING 5 File Contacts Assign to Business License Auth Type 15.1
Standard VEND.X863 STATE File Contacts Assign to Business License Auth Sate Code 15.1
Standard VEND.X864 DATE File Contacts Assign to Business License Auth Date 15.1
Standard VEND.X870 STRING File Contacts Broker Business License Auth Name 15.1
Standard VEND.X871 STRING 5 File Contacts Broker Business License Auth Type 15.1
Standard VEND.X872 STATE File Contacts Broker Business License Auth Sate Code 15.1
Standard VEND.X873 DATE File Contacts Broker Business License Auth Date 15.1
Standard VEND.X879 STRING File Contacts Docs Prepared by Business License Auth Name 15.1
Standard VEND.X880 STRING 5 File Contacts Docs Prepared by Business License Auth Type 15.1
Standard VEND.X881 STATE File Contacts Docs Prepared by Business License Auth Sate Code 15.1
Standard VEND.X882 DATE File Contacts Docs Prepared by Business License Auth Date 15.1
Standard VEND.X888 STRING File Contacts Custom1Business License Auth Name 15.1
Standard VEND.X889 STRING 5 File Contacts Custom1Business License Auth Type 15.1
Standard VEND.X890 STATE File Contacts Custom1Business License Auth Sate Code 15.1
Standard VEND.X891 DATE File Contacts Custom1Business License Auth Date 15.1
Standard VEND.X897 STRING File Contacts Custom2 Business License Auth Name 15.1
Standard VEND.X898 STRING 5 File Contacts Custom2 Business License Auth Type 15.1
Standard VEND.X899 STATE File Contacts Custom2 Business License Auth Sate Code 15.1
Standard VEND.X900 DATE File Contacts Custom2 Business License Auth Date 15.1
Standard VEND.X906 STRING File Contacts Custom3 Business License Auth Name 15.1
Standard VEND.X907 STRING 5 File Contacts Custom3 Business License Auth Type 15.1
Standard VEND.X908 STATE File Contacts Custom2 Business License Auth Sate Code 15.1
Standard VEND.X909 DATE File Contacts Custom2 Business License Auth Date 15.1
Standard VEND.X915 STRING File Contacts Custom4 Business License Auth Name 15.1
Standard VEND.X916 STRING 5 File Contacts Custom4 Business License Auth Type 15.1
Standard VEND.X917 STATE File Contacts Custom4 Business License Auth Sate Code 15.1
Standard VEND.X918 DATE File Contacts Custom4 Business License Auth Date 15.1
Standard VEND.X924 STRING File Contacts Seller's Agent Business License Auth Name 15.1
Standard VEND.X925 STRING 5 File Contacts Seller's Agent Business License Auth Type 15.1
Standard VEND.X926 STATE File Contacts Seller's Agent Business License Auth Sate Code 15.1
Standard VEND.X927 DATE File Contacts Seller's Agent Business License Auth Date 15.1